Voltar ao catálogo

OPS 4682 DEB

AtivoPO
NORAD 55122·DEBRIS·🇺🇸 United States

Lançado Apr 3, 1965 de Vandenberg Space Force Base

Loading…

Próximas Passagens (próximas 24 horas)

TLE

AtualizadoSource: Space-Track

Época: Sep 12, 2026, 14:44 UTC

1 55122U 65027HM  26255.61389747  .00000001  00000-0 -20712-4 0  9998
2 55122  90.2481  14.8533 0034789 208.0607 166.4761 13.03251924602873

Acompanhe OPS 4682 DEB em tempo real com AllMySat

Download on the App Store